Stations météo

réclame
Mon MeteoGroup
Chillingham Barns, Grande-Bretagne (99196): Température de l'air & dewpoint: 12.08.2018 01:00:00 - 18.08.2018 01:00:00 (BST)Chillingham Barns, Grande-Bretagne (99196): Quantités de précipitations: 12.08.2018 01:00:00 - 18.08.2018 01:00:00 (BST)
Date & Time tt [°C] td [°C] rr [mm]
18.08.2018 01:00:00 16,8 13,2 0,0
18.08.2018 00:00:00 16,3 12,9 0,0
17.08.2018 23:00:00 16,5 13,5 0,0
17.08.2018 22:00:00 16,4 13,2 0,0
17.08.2018 21:00:00 15,8 13,0 0,0
17.08.2018 20:00:00 15,5 12,7 0,0
17.08.2018 19:00:00 15,2 12,5 0,0
17.08.2018 18:00:00 14,9 12,4 0,0
17.08.2018 17:00:00 14,8 11,8 0,0
17.08.2018 16:00:00 14,0 11,6 0,0
17.08.2018 15:00:00 14,8 10,8 0,0
17.08.2018 14:00:00 15,9 9,7 0,0
17.08.2018 13:00:00 16,1 10,0 0,0
17.08.2018 12:00:00 16,1 9,4 0,0
17.08.2018 11:00:00 15,1 9,8 0,0
17.08.2018 10:00:00 14,3 9,3 0,0
17.08.2018 09:00:00 14,3 9,9 0,0
17.08.2018 08:00:00 13,9 9,3 0,0
17.08.2018 07:00:00 12,6 9,3 0,0
17.08.2018 06:00:00 11,5 8,5 0,0
17.08.2018 05:00:00 12,4 8,4 0,0
17.08.2018 04:00:00 11,9 8,5 0,0
17.08.2018 03:00:00 11,5 8,8 0,0
17.08.2018 02:00:00 10,8 8,0 0,0
17.08.2018 01:00:00 11,5 8,2 0,0
17.08.2018 00:00:00 12,4 8,5 0,0
16.08.2018 23:00:00 12,2 9,2 0,0
16.08.2018 22:00:00 12,8 9,7 0,0
16.08.2018 21:00:00 13,6 9,8 0,0
16.08.2018 20:00:00 14,6 9,7 0,0
16.08.2018 19:00:00 15,5 9,3 0,0
16.08.2018 18:00:00 15,4 10,0 0,0
16.08.2018 17:00:00 15,4 9,6 0,0
16.08.2018 16:00:00 18,4 9,4 0,0
16.08.2018 15:00:00 17,8 9,4 0,0
16.08.2018 14:00:00 17,8 9,9 0,0
16.08.2018 13:00:00 16,6 9,0 0,0
16.08.2018 12:00:00 18,1 10,1 0,0
16.08.2018 11:00:00 15,9 8,8 0,0
16.08.2018 10:00:00 15,2 9,9 0,0
16.08.2018 09:00:00 13,5 8,9 0,0
16.08.2018 08:00:00 13,2 9,4 0,0
16.08.2018 07:00:00 13,7 10,4 0,0
16.08.2018 06:00:00 14,2 12,7 0,0
16.08.2018 05:00:00 14,7 12,0 0,0
16.08.2018 04:00:00 15,2 12,5 0,0
16.08.2018 03:00:00 15,5 13,4 0,0
16.08.2018 02:00:00 15,5 13,6 0,0
16.08.2018 01:00:00 15,6 13,6 0,0
16.08.2018 00:00:00 16,1 13,4 0,0
15.08.2018 23:00:00 16,1 13,4 0,0
15.08.2018 22:00:00 16,0 14,0 0,0
15.08.2018 21:00:00 16,4 14,4 0,4
15.08.2018 20:00:00 17,1 15,7 0,0
15.08.2018 19:00:00 17,0 15,7 0,4
15.08.2018 18:00:00 17,2 15,4 0,8
15.08.2018 17:00:00 20,7 13,9 0,0
15.08.2018 16:00:00 22,2 14,8 0,0
15.08.2018 15:00:00 22,0 13,4 0,0
15.08.2018 14:00:00 20,8 14,6 0,0
15.08.2018 13:00:00 20,1 14,8 0,0
15.08.2018 12:00:00 20,9 14,8 0,0
15.08.2018 11:00:00 19,1 14,8 0,0
15.08.2018 10:00:00 18,3 14,7 0,0
15.08.2018 09:00:00 17,6 14,5 0,0
15.08.2018 08:00:00 17,2 14,2 0,0
15.08.2018 07:00:00 17,3 14,1 0,0
15.08.2018 06:00:00 17,3 14,1 0,0
15.08.2018 05:00:00 17,6 14,4 0,0
15.08.2018 04:00:00 18,2 14,7 0,0
15.08.2018 03:00:00 17,6 14,8 0,0
15.08.2018 02:00:00 16,9 14,5 0,0
15.08.2018 01:00:00 17,2 15,2 0,0
15.08.2018 00:00:00 16,7 14,8 0,0
14.08.2018 23:00:00 16,6 14,7 0,0
14.08.2018 22:00:00 17,0 14,7 0,0
14.08.2018 21:00:00 17,6 14,7 0,0
14.08.2018 20:00:00 17,6 14,5 0,0
14.08.2018 19:00:00 18,6 14,9 0,0
14.08.2018 18:00:00 19,3 14,8 0,0
14.08.2018 17:00:00 21,0 15,9 0,0
14.08.2018 16:00:00 20,7 15,5 0,0
14.08.2018 15:00:00 18,5 16,0 0,6
14.08.2018 14:00:00 17,9 13,6 0,0
14.08.2018 13:00:00 17,5 13,3 0,0
14.08.2018 12:00:00 18,9 13,2 0,0
14.08.2018 11:00:00 17,8 13,4 0,0
14.08.2018 10:00:00 17,3 12,7 0,0
14.08.2018 09:00:00 16,5 12,9 0,0
14.08.2018 08:00:00 15,2 12,2 0,0
14.08.2018 07:00:00 14,2 12,3 0,0
14.08.2018 06:00:00 13,9 12,7 0,0
14.08.2018 05:00:00 14,7 13,0 0,0
14.08.2018 04:00:00 15,0 13,9 0,0
14.08.2018 03:00:00 15,3 14,8 0,0
14.08.2018 02:00:00 15,2 14,8 0,0
14.08.2018 01:00:00 15,5 15,1 0,0
14.08.2018 00:00:00 15,4 15,1 0,0
13.08.2018 23:00:00 15,5 14,9 0,0
13.08.2018 22:00:00 15,7 14,7 0,0
13.08.2018 21:00:00 16,1 14,6 0,0
13.08.2018 20:00:00 16,5 14,4 0,0
13.08.2018 19:00:00 17,0 14,8 0,0
13.08.2018 18:00:00 18,0 15,0 0,0
13.08.2018 17:00:00 17,9 15,0 0,0
13.08.2018 16:00:00 17,6 15,5 0,0
13.08.2018 15:00:00 17,4 15,6 0,0
13.08.2018 14:00:00 17,3 15,9 0,0
13.08.2018 13:00:00 17,7 16,4 0,2
13.08.2018 12:00:00 16,8 16,1 0,2
13.08.2018 11:00:00 16,7 16,3 0,4
13.08.2018 10:00:00 16,4 16,2 0,4
13.08.2018 09:00:00 16,0 15,8 0,0
13.08.2018 08:00:00 15,7 15,6 0,0
13.08.2018 07:00:00 15,5 15,3 0,0
13.08.2018 06:00:00 15,3 15,1 0,2
13.08.2018 05:00:00 15,4 15,1 0,0
13.08.2018 04:00:00 15,4 15,1 0,0
13.08.2018 03:00:00 15,4 15,1 0,2
13.08.2018 02:00:00 15,5 15,2 0,4
13.08.2018 01:00:00 15,5 15,2 2,2
13.08.2018 00:00:00 15,7 15,3 0,0
12.08.2018 23:00:00 15,7 15,0 0,2
12.08.2018 22:00:00 16,0 15,2 0,0
12.08.2018 21:00:00 16,1 15,1 0,2
12.08.2018 20:00:00 16,5 15,3 0,0
12.08.2018 19:00:00 17,4 15,1 0,0
12.08.2018 18:00:00 17,7 15,8 0,0
12.08.2018 17:00:00 17,5 15,7 0,0
12.08.2018 16:00:00 18,4 16,2 0,0
12.08.2018 15:00:00 17,4 16,0 0,0
12.08.2018 14:00:00 18,0 17,0 0,2
12.08.2018 13:00:00 17,1 16,4 0,2
12.08.2018 12:00:00 16,4 16,0 0,4
12.08.2018 11:00:00 15,6 15,3 2,4
12.08.2018 10:00:00 15,1 14,9 2,8
12.08.2018 09:00:00 14,8 14,6 0,4
12.08.2018 08:00:00 14,3 14,1 0,2
12.08.2018 07:00:00 14,0 13,8 0,2
12.08.2018 06:00:00 13,8 13,5 0,0
12.08.2018 05:00:00 13,5 13,1 0,2
12.08.2018 04:00:00 13,6 13,1 0,8
12.08.2018 03:00:00 13,3 12,9 0,2
12.08.2018 02:00:00 13,2 12,6 0,8
12.08.2018 01:00:00 13,7 12,5 0,4

tt = Température de l'air
td = dewpoint
rr = Quantités de précipitations

stations d'obs. à proximité